Location: Unspecified
(40.8819°N, 0.0000°E)
Time: 17:00:11
(UTC+00:00)

PCSat - Pass Details

Date: 18 April 2024
Orbit: 783 x 792 km, 67.1° (Epoch: 22 May)

Event Time Altitude Azimuth Distance (km) Brightness Sun altitude
Rises 19:27:30 0° 197° (SSW) 3,260 12.7 -8.7°
Reaches altitude 10° 19:29:55 10° 194° (SSW) 2,337 11.9 -9.1°
Maximum altitude 19:35:12 62° 115° (ESE) 886 9.6 -10.0°
Drops below altitude 10° 19:40:31 10° 36° (NE) 2,359 11.9 -11.0°
Sets 19:42:58 0° 33° (NNE) 3,293 12.7 -11.4°
